Temp
10 10 9 9 9 9 9 9 7 6 6 8 7 7 6 6 6 5 5 5 5 5 5 5 6 6 6 8 7 7 7 6 5 5 5 5 6 7
9 9 9 9 8 8 8 8 7 5 5 6 5 5 4 4 3 3 3 3 3 3 3 4 4 4 5 6 6 6 6 5 4 4 4 5 5 6
8 8 8 8 7 7 7 6 5 3 3 3 3 2 2 1 1 1 1 2 2 2 2 3 3 4 5 5 5 6 5 4 4 4 4 4 5 5
7 7 6 6 6 5 4 3 2 2 1 1 1 1 1 0 0 -0 0 0 0 1 1 1 2 2 3 3 3 4 4 4 4 4 4 3 4 5
6 6 5 5 4 3 2 1 1 0 0 0 0 -0 -0 -1 -1 -1 -1 -0 0 1 1 0 0 1 2 3 3 4 4 4 3 3 3 3 4 5
5 5 4 3 2 1 1 0 0 -0 -0 -1 -1 -1 -1 -1 -1 -1 -1 -1 -1 -1 -0 -0 1 2 2 2 2 3 3 2 2 2 2 3 4 4
4 3 3 2 1 1 0 -0 -0 -1 -1 -1 -2 -2 -1 -2 -2 -2 -1 -1 -1 -1 -0 -0 -1 -0 1 1 1 1 1 1 1 1 2 3 4 5
3 3 2 1 1 0 0 -1 -1 -1 -2 -2 -2 -2 -2 -2 -2 -2 -2 -1 -1 -1 -1 -1 -1 -1 -0 -0 0 0 0 -0 -1 -1 1 3 4 5
3 2 1 1 0 -0 -1 -1 -1 -2 -1 -2 -2 -2 -2 -2 -2 -2 -2 -2 -1 -1 -2 -2 -1 -1 -0 0 1 -0 -0 -0 -1 -0 1 2 4 5
2 2 1 0 -1 -1 -1 -1 -2 -1 -1 -1 -1 -2 -2 -2 -2 -2 -2 -2 -2 -1 -1 -1 -1 -1 0 1 1 -0 -0 -0 0 2 2 5 5 5
1 1 -0 -1 -2 -2 -2 -1 -1 -1 -1 -1 -1 -1 -1 -1 -1 -2 -2 -2 -2 -2 -2 -2 -1 -1 -0 1 0 -1 -0 -0 2 4 4 5 5 6
1 -0 -1 -2 -2 -1 -1 -1 -1 -1 -1 -1 -1 -1 -1 -1 -1 -2 -2 -3 -3 -2 -2 -3 -2 -1 -1 -0 -0 -1 -2 -1 3 4 5 5 6 5
-1 -2 -2 -2 -1 -1 -1 -1 -1 -1 -1 -1 -1 -2 -2 -1 -2 -2 -2 -3 -3 -3 -3 -3 -3 -2 -1 -1 -1 -2 -4 -3 -1 2 3 3 4 4
-1 -2 -2 -3 -2 -1 -1 -1 -1 -1 -1 -2 -2 -2 -2 -2 -2 -2 -2 -3 -3 -2 -3 -3 -3 -2 -2 -2 -4 -3 -4 -3 -3 -1 1 2 2 2
-1 -2 -2 -3 -3 -2 -1 -1 -1 -1 -2 -2 -2 -2 -2 -2 -2 -2 -2 -3 -2 -2 -3 -2 -2 -3 -3 -3 -3 -4 -3 -4 -4 -3 -3 -1 -0 -1
-0 -1 -2 -2 -2 -2 -2 -2 -1 -1 -2 -2 -2 -2 -2 -2 -2 -2 -3 -3 -3 -2 -3 -2 -3 -3 -3 -4 -4 -4 -4 -4 -4 -4 -4 -4 -3 -2
-0 -1 -2 -2 -2 -2 -2 -2 -2 -2 -2 -3 -3 -3 -3 -3 -2 -2 -3 -2 -2 -2 -3 -3 -4 -4 -4 -3 -4 -4 -4 -4 -4 -4 -4 -5 -5 -5
-1 -2 -2 -2 -2 -2 -3 -3 -2 -3 -3 -3 -3 -3 -3 -3 -3 -2 -2 -2 -3 -3 -3 -3 -3 -3 -3 -4 -5 -5 -5 -5 -5 -4 -4 -5 -5 -4
-1 -2 -2 -2 -3 -3 -3 -3 -3 -2 -3 -3 -3 -3 -3 -3 -3 -3 -2 -2 -3 -3 -3 -3 -3 -3 -4 -5 -5 -5 -6 -6 -6 -6 -6 -6 -6 -6
-1 -2 -2 -2 -3 -3 -3 -3 -3 -3 -3 -3 -3 -3 -3 -3 -3 -3 -3 -3 -3 -3 -3 -3 -3 -3 -4 -8 -6 -7 -6 -6 -6 -7 -7 -7 -6 -6
-2 -2 -3 -3 -3 -3 -3 -3 -3 -3 -3 -3 -3 -3 -3 -3 -3 -3 -3 -3 -3 -3 -4 -4 -5 -4 -5 -6 -7 -8 -7 -7 -7 -7 -7 -7 -7 -8
-4 -3 -3 -3 -3 -3 -3 -3 -3 -3 -3 -3 -3 -3 -4 -3 -3 -3 -3 -3 -3 -4 -4 -5 -4 -4 -5 -7 -8 -8 -7 -6 -6 -6 -7 -6 -7 -8
-4 -2 -3 -3 -4 -4 -4 -4 -4 -4 -4 -4 -4 -4 -4 -3 -3 -3 -3 -4 -4 -4 -4 -5 -5 -5 -7 -7 -8 -8 -8 -7 -7 -6 -6 -6 -6 -5
Height
823 824 823 822 822 821 821 820 817 813 809 805 804 802 800 796 792 789 785 780 774 768 763 759 755 751 746 743 740 737 733 729 725 721 718 715 711 705
821 821 820 820 821 821 820 819 817 813 807 804 801 798 794 790 787 783 779 774 768 763 757 753 747 743 738 736 732 729 726 723 718 714 710 709 705 699
818 817 818 819 820 819 819 816 814 812 807 800 799 795 789 786 782 779 774 769 762 758 752 747 743 737 731 728 726 722 719 716 711 706 701 698 700 695
814 814 815 818 819 818 817 816 815 812 808 800 795 792 790 784 779 773 767 765 757 752 746 740 736 731 726 722 718 715 713 709 703 699 695 691 688 689
811 813 815 815 817 816 815 814 813 810 807 803 793 792 788 784 774 771 765 758 752 747 741 735 729 724 719 717 712 710 705 702 696 692 688 684 680 676
808 811 813 814 814 814 814 812 811 809 806 802 794 789 785 779 774 765 755 755 746 742 736 731 725 718 714 710 706 702 696 695 690 684 680 677 672 669
807 809 811 812 812 812 812 810 808 805 802 797 791 786 779 773 770 765 757 749 742 738 730 725 719 712 707 702 698 692 690 688 683 675 671 670 667 664
806 808 809 810 811 810 809 808 806 802 799 796 790 784 779 772 766 762 754 748 735 734 728 716 716 708 703 699 693 688 684 681 674 668 661 659 661 659
804 806 807 807 808 808 807 804 801 799 796 790 787 781 777 771 764 757 751 747 740 733 728 714 711 704 700 694 689 683 679 672 664 658 652 650 651 653
803 804 804 804 804 803 801 799 796 795 793 789 784 779 774 769 762 755 748 742 736 730 726 714 708 702 696 689 685 680 673 664 654 649 644 643 647 649
801 802 801 801 801 799 796 793 791 789 787 784 779 775 772 766 760 752 745 740 733 727 720 714 707 700 692 683 681 675 666 657 647 643 641 640 644 646
798 800 799 797 795 794 792 789 787 784 782 778 774 768 767 764 758 751 745 740 734 725 720 717 709 703 691 682 679 673 663 653 643 639 637 634 635 641
796 797 796 793 792 791 789 788 786 784 779 775 770 764 763 758 754 748 744 739 734 729 722 719 710 705 699 688 680 676 669 658 648 641 634 632 631 636
793 793 791 790 790 789 787 788 784 780 776 772 770 765 760 756 751 747 742 738 733 728 721 716 712 707 701 692 687 680 675 667 657 650 646 645 647 655
790 790 789 789 787 786 786 787 782 778 773 771 768 765 761 756 750 746 741 737 732 727 721 715 711 708 705 701 695 689 684 680 672 665 660 660 667 669
789 789 788 788 786 785 785 784 780 777 773 770 768 765 761 755 749 746 742 737 732 728 724 719 715 713 709 706 703 697 691 691 690 682 678 677 683 688
787 787 786 785 784 784 783 782 778 775 773 770 764 762 759 755 750 747 743 739 734 731 728 725 722 718 715 712 709 707 704 701 700 699 693 696 702 705
784 784 782 783 783 783 782 781 778 774 772 769 765 760 758 754 750 748 745 741 737 734 732 730 728 725 721 719 717 716 715 713 712 711 711 709 719 725
780 780 779 782 781 781 782 778 776 773 769 767 767 762 757 754 751 749 746 743 739 736 735 734 732 730 729 729 729 726 723 721 721 721 723 724 727 735
776 777 778 778 778 779 779 776 775 771 768 765 765 760 757 754 751 749 747 744 741 739 737 737 736 736 734 737 738 740 735 733 731 733 734 736 740 746
773 773 775 775 776 776 776 776 775 771 768 764 764 760 756 754 752 750 748 746 743 741 740 740 741 741 741 741 743 747 747 745 743 743 745 745 751 757
771 771 771 771 772 772 771 769 767 768 767 763 763 759 755 753 752 750 748 747 745 743 744 744 744 745 745 746 750 752 754 755 754 754 754 757 759 765
767 768 769 769 769 771 770 767 768 763 765 762 761 757 753 752 752 750 749 748 746 745 746 747 748 749 751 753 755 758 759 760 761 761 763 765 765 769
Wind_Speed
2 2 3 6 9 11 15 16 11 6 8 20 11 18 25 23 29 32 37 41 41 38 38 38 35 34 35 34 30 29 32 32 31 32 31 29 31 34
1 2 5 7 10 11 13 17 19 17 5 16 21 24 27 33 28 31 33 33 34 34 36 38 35 34 32 33 30 28 29 29 31 33 34 30 31 33
2 4 6 8 9 10 11 13 16 20 13 23 24 28 33 31 30 31 31 28 30 32 35 33 36 34 28 24 26 27 26 28 32 37 37 33 29 30
4 4 6 6 7 9 13 18 18 17 19 23 28 28 26 29 30 32 30 29 30 32 34 33 34 35 30 29 27 23 25 30 36 33 34 35 35 32
2 4 6 8 10 14 16 14 16 17 17 20 27 26 28 29 30 31 30 29 28 31 32 35 34 32 26 27 23 29 33 33 32 34 37 36 36 33
1 3 5 7 10 10 11 16 15 17 19 20 23 24 26 26 26 28 33 28 30 32 32 29 29 27 32 32 31 33 33 27 32 38 40 35 34 32
1 3 4 6 6 6 12 14 16 19 19 20 22 22 23 21 24 28 28 33 32 31 28 26 34 33 29 33 32 31 28 31 35 39 36 32 30 27
3 5 6 8 6 9 11 13 15 22 22 20 21 20 23 25 26 27 28 25 13 21 29 37 30 30 28 27 29 31 30 31 35 36 35 31 26 24
4 4 5 5 9 12 13 14 21 22 19 21 23 23 27 30 31 29 26 26 26 31 29 32 29 25 29 30 30 27 30 37 37 35 33 28 22 18
0 3 6 8 10 11 15 21 20 21 20 20 22 26 27 30 30 31 32 31 28 26 23 19 25 25 31 29 21 25 35 34 31 26 24 18 16 16
2 4 4 8 10 14 17 17 21 22 22 23 23 24 24 25 26 28 23 22 20 24 25 18 14 25 27 22 16 32 34 28 22 15 11 13 14 15
4 5 6 7 11 10 16 18 20 24 26 26 23 23 23 27 24 23 25 20 17 11 10 19 20 15 7 11 24 31 33 29 16 10 11 13 14 21
6 5 8 10 10 12 14 16 20 23 23 23 23 23 24 26 27 24 22 19 19 14 24 22 13 17 8 16 16 27 31 28 22 15 9 10 30 48
4 5 10 11 12 12 13 15 18 20 21 21 20 20 22 26 28 26 23 18 17 20 25 20 12 16 13 8 7 23 26 29 27 27 34 29 35 43
4 8 10 9 10 13 13 15 17 21 22 18 17 19 24 25 25 24 22 17 14 18 18 15 11 10 11 9 8 14 11 29 30 29 34 38 37 36
5 7 9 8 9 10 13 15 17 19 21 18 19 23 24 25 24 25 18 17 12 17 16 13 12 12 15 14 13 17 23 12 25 29 35 40 37 35
4 6 8 9 11 12 15 17 18 19 21 21 20 20 21 23 23 23 16 12 11 13 14 14 18 18 22 19 15 18 19 24 26 27 36 40 37 34
2 3 5 7 9 10 13 16 18 20 20 21 20 20 18 22 22 21 13 9 10 10 12 9 12 14 18 27 26 20 24 21 25 30 31 36 33 35
1 2 3 6 7 10 12 14 17 18 19 20 20 20 19 21 19 18 13 8 7 8 8 8 9 12 7 7 18 21 20 23 28 31 28 29 31 30
2 2 4 5 6 8 11 12 15 18 19 18 18 19 18 18 17 15 10 5 6 5 6 9 10 12 10 3 8 27 20 26 29 29 33 39 41 36
6 6 6 6 7 8 9 11 15 16 17 18 19 16 17 17 16 12 8 4 5 8 12 11 11 20 22 15 17 22 29 25 25 26 26 30 26 27
8 7 7 8 8 8 8 8 10 14 15 17 19 18 16 14 14 12 9 2 4 10 15 15 13 13 15 15 15 15 22 23 22 20 18 18 10 7
11 10 10 10 9 9 11 11 11 12 16 15 17 15 15 14 12 7 4 4 3 13 13 14 12 14 18 18 17 18 21 23 25 27 24 12 12 27
Wind_Direction
179 327 335 342 333 332 325 325 323 317 308 310 308 319 324 316 317 322 313 308 308 313 315 313 303 310 304 286 285 295 301 304 306 307 306 300 294 297
243 358 3 357 344 337 331 326 328 336 309 327 322 327 325 321 323 318 319 316 309 311 315 315 320 312 304 284 283 292 300 305 307 307 306 304 295 290
88 41 11 354 345 333 327 337 335 341 319 317 320 322 323 325 325 321 319 317 315 312 315 317 314 315 311 284 290 300 300 303 305 307 306 303 298 294
76 47 34 351 330 330 332 334 337 341 337 319 318 325 321 321 319 319 319 316 318 318 319 316 309 306 307 301 299 293 302 303 305 306 303 303 301 294
79 2 340 316 322 331 336 344 346 335 324 314 311 316 316 319 318 317 316 317 316 316 315 314 311 313 307 296 294 295 308 309 305 300 299 300 296 297
58 335 327 330 338 356 348 343 339 330 323 313 306 311 313 317 314 314 316 318 317 316 313 313 320 312 303 303 301 306 312 308 298 295 298 299 291 292
2 347 348 7 4 348 336 332 331 329 316 313 305 309 314 317 315 313 308 313 315 313 314 316 312 311 307 312 314 317 314 301 298 297 295 293 286 288
70 27 14 13 334 331 327 323 323 325 314 311 308 307 309 309 310 309 308 313 312 321 320 308 312 307 308 313 314 313 310 307 301 297 294 287 278 274
36 11 2 345 325 336 338 329 326 328 326 318 301 304 307 308 306 305 306 303 300 304 311 302 314 306 317 317 316 313 313 316 307 299 291 280 267 263
55 336 343 346 355 342 337 331 340 342 339 330 320 316 314 316 311 309 308 302 300 302 308 296 309 310 322 320 318 317 327 319 308 299 287 261 244 247
53 15 7 351 346 344 338 345 345 342 341 333 331 329 327 327 325 322 314 314 316 317 314 293 320 316 314 308 317 337 335 337 320 309 272 244 238 221
65 38 14 341 338 10 354 350 343 342 340 338 340 339 337 337 335 333 321 310 317 320 332 330 313 329 307 307 330 351 350 355 349 321 286 258 222 190
56 22 344 357 35 15 7 359 349 339 339 340 341 340 337 339 341 337 326 311 308 296 313 325 307 311 299 308 326 359 8 12 34 63 58 140 150 143
50 357 357 21 21 19 11 355 349 346 347 346 340 337 334 338 344 336 332 333 322 320 323 325 301 310 305 315 332 355 15 28 42 66 88 95 112 129
14 12 47 29 15 23 11 351 354 356 356 336 337 336 341 344 345 342 336 342 352 356 351 342 326 0 46 27 335 351 11 27 42 62 73 96 104 104
38 60 57 36 22 17 6 360 358 358 355 346 334 342 343 349 348 347 337 350 4 13 27 42 62 62 52 51 48 43 45 59 49 63 77 80 96 108
59 58 49 26 20 11 5 359 356 357 354 347 344 336 339 344 345 347 335 354 21 18 28 52 69 73 64 50 41 44 51 61 67 72 81 78 73 86
50 40 30 17 16 4 357 353 353 351 351 347 345 343 339 344 344 346 343 5 25 24 28 58 69 75 67 52 51 52 60 64 74 86 88 91 83 94
254 350 328 342 357 356 355 349 346 346 348 348 343 338 341 341 345 346 347 12 31 31 29 55 69 77 72 58 37 52 63 67 76 73 81 87 92 91
233 296 299 317 331 336 342 346 342 340 345 345 334 342 338 339 342 343 348 15 53 55 48 91 93 95 83 76 84 50 84 88 87 84 86 89 99 105
247 254 278 310 315 320 327 334 339 338 339 342 337 333 338 337 335 336 333 359 51 83 87 86 103 119 108 98 87 65 71 80 91 94 95 91 90 93
268 268 284 295 305 305 313 318 319 331 330 334 336 334 335 329 328 326 306 243 98 113 115 119 134 138 111 103 97 99 89 90 93 93 96 108 119 115
256 274 264 280 294 298 310 315 315 328 327 327 330 330 333 324 328 311 297 287 202 145 125 119 126 125 114 110 110 106 105 101 90 83 72 65 98 132